CW6421 Weather Reports


time (UTC)temp
C
wind
direction
speed
KPH
gust
KPH
rain 1hr
cm
rain 24hr
cm
rain mn
cm
humidity
%
barometer
mb
20260505014528 15 76 11.3 12.9 0.00 0.00 0.00 74 1011.1
20260505013527 15 69 9.7 16.1 0.00 0.00 0.00 74 1011.1
20260505012526 15 69 11.3 12.9 0.00 0.00 0.00 74 1011.1
20260505011529 15 67 9.7 16.1 0.00 0.00 0.00 73 1011.1
20260505005527 15 68 12.9 14.5 0.00 0.00 0.00 73 1011.8
20260505004529 15 54 9.7 12.9 0.00 0.00 0.00 73 1011.8
20260505003526 15 61 12.9 14.5 0.00 0.00 0.00 73 1011.8
20260505002527 15 93 9.7 14.5 0.00 0.00 0.00 73 1011.8
20260505001528 15 93 8.0 12.9 0.00 0.00 0.00 73 1011.8
20260505000527 15 81 9.7 19.3 0.00 0.00 0.00 72 1012.0
20260504235526 15 82 8.0 17.7 0.00 0.00 0.00 72 1012.0
20260504234535 15 80 8.0 16.1 0.00 0.00 0.00 72 1012.0
20260504233530 15 60 4.8 16.1 0.00 0.00 0.00 72 1012.0
20260504232526 16 64 8.0 19.3 0.00 0.00 0.00 71 1012.0
20260504231528 16 60 9.7 16.1 0.00 0.00 0.00 71 1012.0
20260504230528 16 62 9.7 19.3 0.00 0.00 0.00 70 1012.1
20260504225527 16 56 8.0 16.1 0.00 0.00 0.00 70 1012.1
20260504223529 16 54 11.3 19.3 0.00 0.00 0.00 70 1012.1
20260504222526 16 59 11.3 19.3 0.00 0.00 0.00 69 1012.1
20260504221530 16 55 12.9 16.1 0.00 0.00 0.00 69 1012.1
20260504220528 17 51 14.5 17.7 0.00 0.00 0.00 68 1012.3
20260504215527 17 41 14.5 17.7 0.00 0.00 0.00 68 1012.3
20260504214529 17 27 11.3 12.9 0.00 0.00 0.00 67 1012.3
20260504213527 17 38 11.3 14.5 0.00 0.00 0.00 67 1012.3
20260504212525 17 21 9.7 12.9 0.00 0.00 0.00 66 1012.3
20260504210527 17 34 4.8 11.3 0.00 0.00 0.00 65 1012.1
20260504205526 18 31 4.8 12.9 0.00 0.00 0.00 64 1012.1
20260504204532 18 32 8.0 12.9 0.00 0.00 0.00 64 1012.1
20260504203527 18 25 6.4 12.9 0.00 0.00 0.00 63 1012.1
20260504201528 18 45 6.4 12.9 0.00 0.00 0.00 63 1012.1
20260504195527 18 46 6.4 14.5 0.00 0.00 0.00 62 1011.9
20260504193528 18 21 8.0 14.5 0.00 0.00 0.00 61 1011.9
20260504191529 19 4 11.3 12.9 0.00 0.00 0.00 60 1011.9
20260504190528 19 8 12.9 16.1 0.00 0.00 0.00 60 1011.6
20260504185527 20 8 9.7 12.9 0.00 0.00 0.00 59 1011.6
20260504183527 20 340 11.3 14.5 0.00 0.00 0.00 59 1011.6
20260504182527 20 341 9.7 12.9 0.00 0.00 0.00 59 1011.6
20260504181529 20 302 11.3 11.3 0.00 0.00 0.00 58 1011.6
20260504180528 21 304 8.0 16.1 0.00 0.00 0.00 57 1011.4
20260504175526 21 313 9.7 12.9 0.00 0.00 0.00 56 1011.4
20260504174530 21 318 6.4 16.1 0.00 0.00 0.00 55 1011.4
20260504172526 21 300 6.4 16.1 0.00 0.00 0.00 55 1011.4
20260504171529 21 253 6.4 14.5 0.00 0.00 0.00 54 1011.4
20260504150528 23 300 11.3 22.5 0.00 0.00 0.00 51 1012.1
20260504140527 24 281 17.7 22.5 0.00 0.00 0.00 51 1012.4
20260504130527 24 261 14.5 22.5 0.00 0.00 0.00 47 1012.5
20260504110527 23 281 16.1 35.4 0.00 0.00 0.00 52 1013.1
20260504100528 21 259 16.1 41.8 0.00 0.00 0.00 57 1013.4
20260504081530 19 274 12.9 19.3 0.00 0.00 0.00 63 1013.0
20260504080528 19 265 11.3 19.3 0.00 0.00 0.00 62 1012.7
20260504050528 17 230 17.7 20.9 0.00 0.00 0.00 60 1011.6
20260504045526 17 213 16.1 17.7 0.00 0.00 0.00 60 1011.6
20260504044528 17 228 16.1 17.7 0.00 0.00 0.00 60 1011.6
20260504043526 17 213 12.9 14.5 0.00 0.00 0.00 59 1011.6
20260504042528 17 224 14.5 16.1 0.00 0.00 0.00 60 1011.6
20260504041529 17 234 12.9 17.7 0.00 0.00 0.00 60 1011.6
20260504040527 17 232 11.3 12.9 0.00 0.00 0.00 60 1011.7
20260504035526 17 237 9.7 12.9 0.00 0.00 0.00 60 1011.7
20260504034528 17 256 9.7 12.9 0.00 0.00 0.00 59 1011.7
20260504033527 17 264 9.7 12.9 0.00 0.00 0.00 58 1011.7
20260504032527 17 258 9.7 14.5 0.00 0.00 0.00 57 1011.7
20260504025527 18 252 9.7 12.9 0.00 0.00 0.00 54 1011.7
20260504023526 18 255 14.5 16.1 0.00 0.00 0.00 53 1011.7
20260504022525 18 267 14.5 16.1 0.00 0.00 0.00 51 1011.7
20260504020528 18 276 8.0 32.2 0.00 0.00 0.00 50 1011.0
20260504015526 18 281 12.9 32.2 0.00 0.00 0.00 50 1011.0